Preston, Minnesota, United States (55965)
Lat: 43.67N, Lon: 92.08W
Wx Zone: MNZ095
Local Info
Past Weather Observations for Today

NOTE: This archive is for the closest National Weather Service station to Preston. Information may differ from the station used for current weather conditions.

Click here for Long-term Archive

Time Weather Temperature Dewpoint Humidity Pressure Winds Precip Visibility
14:34
Clear
19°F / -7°C 9°F / -13°C 63% 30.27 in
(1025 mb)
W 17.3 mph
(W 28 kph)
- 10SM
14:15
Clear
19°F / -7°C 9°F / -13°C 63% 30.27 in
(1025 mb)
W 17.3 mph
(W 28 kph)
- 10SM
13:55
Clear
19°F / -7°C 9°F / -13°C 63% 30.27 in
(1025 mb)
W 17.3 mph
(W 28 kph)
- 10SM
13:34
Clear
19°F / -7°C 9°F / -13°C 63% 30.27 in
(1025 mb)
W 18.4 mph
(W 30 kph)
- 10SM
13:15
Clear
19°F / -7°C 9°F / -13°C 63% 30.24 in
(1024 mb)
WNW 17.3 mph
(WNW 28 kph)
- 10SM
12:55
Clear
19°F / -7°C 9°F / -13°C 63% 30.27 in
(1025 mb)
WNW 15 mph
(WNW 24 kph)
- 10SM
12:34
Clear
19°F / -7°C 9°F / -13°C 63% 30.27 in
(1025 mb)
WNW 16.1 mph
(WNW 26 kph)
- 10SM
12:15
Partly Cloudy
19°F / -7°C 9°F / -13°C 63% 30.27 in
(1025 mb)
W 17.3 mph
(W 28 kph)
- 10SM
11:55
Partly Cloudy
19°F / -7°C 10°F / -12°C 68% 30.27 in
(1025 mb)
W 13.8 mph
(W 22 kph)
- 10SM
11:34
Mostly Cloudy
18°F / -8°C 12°F / -11°C 79% 30.27 in
(1025 mb)
W 11.5 mph
(W 19 kph)
- 10SM
11:15
Mostly Cloudy
18°F / -8°C 14°F / -10°C 86% 30.27 in
(1025 mb)
W 12.7 mph
(W 20 kph)
- 7SM
10:55
Mostly Cloudy
18°F / -8°C 14°F / -10°C 86% 30.27 in
(1025 mb)
W 13.8 mph
(W 22 kph)
- 7SM
10:34
Mostly Cloudy
18°F / -8°C 14°F / -10°C 86% 30.27 in
(1025 mb)
W 13.8 mph
(W 22 kph)
- 7SM
10:15
Overcast
Fog And Mist
16°F / -9°C 14°F / -10°C 93% 30.27 in
(1025 mb)
W 13.8 mph
(W 22 kph)
- 5SM
09:55
Overcast
16°F / -9°C 14°F / -10°C 93% 30.27 in
(1025 mb)
SSW 9.2 mph
(SSW 15 kph)
- 7SM
09:35
Overcast
Light Snow
16°F / -9°C 14°F / -10°C 93% 30.27 in
(1025 mb)
SSW 12.7 mph
(SSW 20 kph)
- 1 3/4SM
09:15
Overcast
Light Snow
16°F / -9°C 14°F / -10°C 93% 30.27 in
(1025 mb)
SSW 13.8 mph
(SSW 22 kph)
- 3SM
08:55
Overcast
Fog And Mist
16°F / -9°C 14°F / -10°C 93% 30.27 in
(1025 mb)
SSW 9.2 mph
(SSW 15 kph)
- 4SM
08:35
Overcast
Fog And Mist
16°F / -9°C 14°F / -10°C 93% 30.27 in
(1025 mb)
SSW 10.4 mph
(SSW 17 kph)
- 4SM
08:15
Overcast
Fog And Mist
14°F / -10°C 12°F / -11°C 92% 30.27 in
(1025 mb)
SSW 8.1 mph
(SSW 13 kph)
- 3SM
07:55
Overcast
Fog And Mist
14°F / -10°C 12°F / -11°C 92% 30.27 in
(1025 mb)
SSW 10.4 mph
(SSW 17 kph)
- 3SM
07:35
Overcast
Fog And Mist
14°F / -10°C 12°F / -11°C 92% 30.24 in
(1024 mb)
SW 10.4 mph
(SW 17 kph)
- 2 1/2SM
07:15
Overcast
Fog And Mist
12°F / -11°C 10°F / -12°C 92% 30.24 in
(1024 mb)
SW 9.2 mph
(SW 15 kph)
- 1 1/4SM
06:55
Overcast
Fog And Mist
12°F / -11°C 10°F / -12°C 92% 30.24 in
(1024 mb)
SW 8.1 mph
(SW 13 kph)
- 1 1/4SM
06:35
Overcast
Fog And Mist
12°F / -11°C 10°F / -12°C 92% 30.27 in
(1025 mb)
SW 8.1 mph
(SW 13 kph)
- 2SM
06:15
Overcast
Fog And Mist
10°F / -12°C 9°F / -13°C 92% 30.27 in
(1025 mb)
SW 10.4 mph
(SW 17 kph)
- 2 1/2SM
05:55
Overcast
Fog And Mist
10°F / -12°C 9°F / -13°C 92% 30.27 in
(1025 mb)
SW 9.2 mph
(SW 15 kph)
- 4SM
05:35
Overcast
Fog And Mist
10°F / -12°C 9°F / -13°C 92% 30.27 in
(1025 mb)
SW 10.4 mph
(SW 17 kph)
- 5SM
05:15
Overcast
10°F / -12°C 7°F / -14°C 85% 30.27 in
(1025 mb)
SW 11.5 mph
(SW 19 kph)
- 7SM
04:54
Mostly Cloudy
9°F / -13°C 7°F / -14°C 92% 30.27 in
(1025 mb)
SW 10.4 mph
(SW 17 kph)
- 7SM
04:35
Partly Cloudy
9°F / -13°C 7°F / -14°C 92% 30.27 in
(1025 mb)
SW 8.1 mph
(SW 13 kph)
- 7SM
04:15
Mostly Cloudy
9°F / -13°C 7°F / -14°C 92% 30.27 in
(1025 mb)
SW 6.9 mph
(SW 11 kph)
- 7SM
03:54
Partly Cloudy
9°F / -13°C 7°F / -14°C 92% 30.27 in
(1025 mb)
SW 6.9 mph
(SW 11 kph)
- 7SM
03:35
Partly Cloudy
Light Snow
9°F / -13°C 5°F / -15°C 85% 30.27 in
(1025 mb)
SW 10.4 mph
(SW 17 kph)
- 7SM
03:15
Mostly Cloudy
Light Snow
9°F / -13°C 5°F / -15°C 85% 30.27 in
(1025 mb)
SSE 6.9 mph
(SSE 11 kph)
- 7SM
02:54
Partly Cloudy
9°F / -13°C 5°F / -15°C 85% 30.3 in
(1026 mb)
S 12.7 mph
(S 20 kph)
- 7SM
02:35
Clear
9°F / -13°C 5°F / -15°C 85% 30.3 in
(1026 mb)
S 13.8 mph
(S 22 kph)
- 7SM
02:15
Clear
Light Snow
7°F / -14°C 5°F / -15°C 92% 30.3 in
(1026 mb)
S 11.5 mph
(S 19 kph)
- 5SM
01:54
Clear
Light Snow
7°F / -14°C 3°F / -16°C 85% 30.3 in
(1026 mb)
S 9.2 mph
(S 15 kph)
- 4SM
01:35
Clear
7°F / -14°C 5°F / -15°C 92% 30.3 in
(1026 mb)
S 11.5 mph
(S 19 kph)
- 7SM
01:15
Clear
Light Snow
7°F / -14°C 5°F / -15°C 92% 30.33 in
(1027 mb)
S 11.5 mph
(S 19 kph)
- 7SM
00:55
Partly Cloudy
Light Snow
9°F / -13°C 5°F / -15°C 85% 30.33 in
(1027 mb)
S 10.4 mph
(S 17 kph)
- 7SM
00:34
Overcast
Light Snow
9°F / -13°C 5°F / -15°C 85% 30.33 in
(1027 mb)
S 12.7 mph
(S 20 kph)
- 7SM
00:15
Overcast
Light Snow
9°F / -13°C 5°F / -15°C 85% 30.33 in
(1027 mb)
S 10.4 mph
(S 17 kph)
- 5SM
Time Weather Temperature Dewpoint Humidity Pressure Winds Precip Visibility


Weather for websites

WeatherForYou.com, LLC is not responsible for any damages or problems caused by this service. Current weather conditions are obtained from the closest station including government and personal stations which may have varying degrees of accuracy. Weather forecasts are derived from the NOAA NDFD. Like all things, this site belongs to Jesus Christ... He just trusts me to maintain it. If you have any questions or comments email webmaster@weatherforyou.com

Copyright © 2015, WeatherForYou.com LLC. All rights reserved.